10:02
Airports
History
Links
Donate
Help keep this website running!
PayPal
Bitcoin
This page is community maintained. The information is intended for PC simulator navigation or reference.
Always use approved charts for navigation.
6X7
B & L Farms
B & L Farms (6X7)
Miami, Florida, United States (33187)
4
Lat/Lng:25° 35' 1.38" N / 80° 29' 59.2" W
25.583718 / -80.499779
Elevation:9'ft / 3mMSL
ID / ICAO:6X7
Runways:1
Longest:18-36
Grass 756m / 2,482ft
Nearby Weather09:53 GMT 2017-11-21
Nearby weather at KTMB, Kendall-tamiami Executive located 6.1 nautical miles from 6X7
Altimeter: 29.95
Visibility: 1.8 statute miles
Wind: 0 knots (from 000°)
Temp: 19°c / 66°f
Humidity: 100.0%

METAR: KTMB 210953Z AUTO 00000KT 1 3/4SM BR CLR 19/19 A2995 RMK AO2 SLP143 T01940189

(Powered by phpweather)
Nearby VORs <50NM
Nearby NDBs
Runway 18 / 36
Dimensions:756.4 x 39.6m 2482' x 130'ft
Surface:Grass
Runway 18 [A]Runway 36 [B]
Heading:176°TH 356°TH
Lat:
Lng:
25° 35' 13.53"N
80° 29' 59.91"W
25° 34' 49.24"N
80° 29' 58.5"W
User Notes and Comments
25° 35' 1.38" N / 80° 29' 59.2" W
Distance To
Airport ID:
Nearby Airports
4 Richards Field 2.0 NM
6X6 SSW 208°
4 Miami 2.3 NM
22FD NE 40°
4 Macs Field 3.3 NM
78FD SE 140°
(R) Mjd 3.9 NM
FL31 WSW 239°
4 Kendall 5.4 NM
6X5 WNW 286°
(C) Kendall-tamiami Executive 6.1 NM
KTMB ( WX ) NE 43°
4 Burrs Strip 6.3 NM
86X E 98°
VFR Chart
Flight Planning at SkyVector.com